Regional Weather Roundup
Issued by NWS Kansas City/Pleasant Hill, MO

Home | Current Version | Previous Version | Text Only | Print | Product List | Glossary On
Versions: 1 2 3 4 5 6 7 8 9 10 11 12 13 14 15 16 17 18 19 20 21 22 23 24 25 26 27 28 29 30 31 32 33 34 35 36 37 38 39 40 41 42 43 44 45 46 47 48 49 50
000
ASUS43 KEAX 202011
RWREAX

WEATHER ROUNDUP FOR EASTERN KANSAS AND NORTHWEST MISSOURI
NATIONAL WEATHER SERVICE KANSAS CITY/PLEASANT HILL MO
300 PM CDT MON OCT 20 2014

KSZ040-057-103>105-MOZ028-029-037-043-202100-
...KANSAS CITY METROPOLITAN AREA...

CITY           SKY/WX    TMP DP  RH WIND       PRES   REMARKS
K.C. INTL      SUNNY     73  46  38 NW7       30.04F
K.C. DOWNTOWN  SUNNY     75  47  36 NE5       30.03S
LEES SUMMIT    SUNNY     73  47  39 N7        30.04F
OLATHE - IXD   SUNNY     73  48  41 N9        30.04F
OLATHE - OJC   SUNNY     74  47  38 N7        30.03F
LAWRENCE       SUNNY     75  47  36 MISG      30.04F

$$

MOZ001>008-011>017-020>025-030>033-038>040-044>046-053-054-202100-
...NORTHERN AND CENTRAL MISSOURI...

CITY           SKY/WX    TMP DP  RH WIND       PRES   REMARKS
ST. JOSEPH     SUNNY     75  42  30 N6        30.04F
MOSBY          CLEAR     72  41  33 W3        30.03F
WHITEMAN AFB   SUNNY     73  48  41 N7        30.01F
CLINTON        SUNNY     73  55  53 N5        30.02F
SEDALIA        SUNNY     75  46  35 N6        30.02F
WARSAW         NOT AVBL
MARSHALL       SUNNY     75  45  33 N6        30.02S HAZE
CHILLICOTHE      N/A     73  43  33 VRB3      30.03F
MOBERLY        SUNNY     73  39  29 N8        30.01F
KIRKSVILLE     SUNNY     70  43  37 NW12G22   30.01F

$$

MOZ041-047>049-056>058-063>065-088>090-097-202100-
...EASTERN AND SOUTHERN MISSOURI...

CITY           SKY/WX    TMP DP  RH WIND       PRES   REMARKS
ST. LOUIS INTL MOSUNNY   74  49  41 NW12G18   29.95F
SPIRIT OF STL  SUNNY     73  46  38 NW10G20   29.94F
COLUMBIA       SUNNY     73  47  39 NW6       29.99F
JEFFERSON CITY SUNNY     74  47  38 W8        29.98F
MEXICO         SUNNY     73  48  40 W8        29.99F
HANNIBAL       SUNNY     72  37  28 NW8G16    29.98S
ROLLA          SUNNY     72  52  49 NW6       29.98F
LEBANON        SUNNY     75  52  43 NW9       30.01S
OSAGE BEACH    SUNNY     73  54  49 W10       30.00F
SPRINGFIELD    SUNNY     73  55  53 CALM      30.01F
BRANSON        PTSUNNY   75  57  53 NW5       30.04F
NEVADA         SUNNY     75  54  46 W3        30.02F
JOPLIN         SUNNY     74  58  57 NW3       30.03F
WEST PLAINS    MOSUNNY   72  56  57 SW6       30.00F

$$

IAZ060-094-KSZ022-034>040-054-083-096-NEZ052-066-093-202100-
...KANSAS...SOUTHEAST NEBRASKA AND IOWA...

CITY           SKY/WX    TMP DP  RH WIND       PRES   REMARKS
TOPEKA         SUNNY     76  47  35 NE9       30.04F
MANHATTAN      SUNNY     77  46  33 NE9       30.04F
EMPORIA        SUNNY     77  47  34 N13       30.03F
CHANUTE        SUNNY     77  54  44 N3        30.02F
WICHITA        SUNNY     80  46  30 NE6       30.03F
OMAHA          SUNNY     71  38  29 NW5       30.05F
LINCOLN        SUNNY     74  39  28 CALM      30.07F
FALLS CITY     SUNNY     74  38  27 NW9       30.04F
LAMONI         SUNNY     70  43  37 N12       30.03F
DES MOINES     SUNNY     71  40  32 NW15      30.00F

$$




USA.gov is the U.S. government's official web portal to all federal, state and local government web resources and services.